Temp
62 62 63 62 62 62 62 62 62 63 64 66 68 69 71 72 73 73 71 70 73 75 77 78 78 77 77 77 77 76 76 76 75 75 74 74 74 73 73 72 72 73 72
62 63 62 62 63 62 62 62 61 61 62 63 65 66 68 70 71 73 72 72 71 73 75 77 78 78 77 77 76 76 76 75 75 75 74 74 74 73 72 72 72 72 72
63 62 62 62 62 62 60 61 61 61 61 62 63 64 65 67 69 71 70 71 72 70 71 74 76 77 77 77 77 76 75 75 75 75 74 74 73 73 72 72 72 72 71
62 61 61 61 61 60 59 59 59 59 59 59 60 62 63 65 67 69 70 72 69 70 72 72 75 76 77 77 76 76 75 75 75 74 74 73 73 73 72 72 72 71 71
62 61 61 61 61 60 59 58 59 57 57 58 59 61 61 61 63 67 68 70 72 70 69 72 71 73 76 77 77 76 75 75 74 74 74 73 73 72 72 72 72 71 70
61 61 60 60 60 59 59 58 56 58 56 57 58 58 59 61 62 63 66 70 70 71 69 69 72 72 73 76 76 76 75 74 74 74 74 73 73 72 72 72 71 71 70
59 59 58 58 58 57 58 57 56 54 56 56 54 56 58 59 61 64 67 68 68 70 69 68 69 72 74 73 74 75 76 75 75 74 73 73 73 72 72 72 71 70 68
58 58 58 58 58 57 57 57 55 53 53 55 53 52 49 54 61 64 65 67 67 66 66 68 67 72 73 74 73 71 72 73 75 73 74 73 73 73 72 71 70 69 68
57 57 57 58 58 57 55 56 56 53 51 55 55 51 46 47 51 59 60 63 65 64 65 66 67 69 73 73 71 70 68 69 71 72 73 73 73 73 72 71 69 69 66
56 56 56 57 57 57 55 55 56 52 52 50 53 55 54 52 46 47 58 56 56 58 63 65 66 67 70 71 70 68 69 68 69 71 71 73 73 72 72 69 68 66 65
54 54 56 57 56 56 55 53 53 53 53 51 52 52 51 51 51 47 46 51 56 57 57 57 64 66 69 68 66 67 67 67 67 68 69 70 70 72 70 68 67 65 64
52 53 53 54 55 55 54 53 53 52 52 52 53 52 50 48 49 49 47 51 50 54 54 55 56 63 66 67 66 65 65 66 66 66 67 68 68 69 68 67 65 64 63
50 51 51 52 53 53 53 53 53 52 52 51 51 51 52 51 52 51 49 48 49 52 56 54 54 56 59 66 65 63 64 65 65 66 66 66 67 66 65 64 63 62 62
51 52 52 52 52 52 52 53 52 52 53 52 51 51 51 52 52 51 49 48 44 51 51 50 54 54 57 62 65 63 65 65 64 64 64 64 64 63 62 61 60 60 59
51 51 51 50 51 51 51 52 51 51 52 52 52 51 51 52 52 52 52 52 47 43 46 51 49 53 56 60 62 62 63 63 63 62 61 61 60 60 59 59 58 58 58
51 50 50 50 50 50 51 50 50 51 50 51 52 50 50 51 51 51 51 53 53 49 45 47 47 50 54 55 58 58 58 59 59 58 58 57 57 56 56 56 56 56 56
50 49 49 49 48 48 49 49 49 49 48 49 50 50 50 51 51 52 52 50 50 52 45 44 45 47 48 50 50 52 53 53 53 56 55 54 54 54 54 54 54 54 54
46 46 47 46 45 45 47 48 47 49 48 47 49 49 49 51 50 50 51 50 52 52 46 42 42 43 45 47 47 47 48 50 50 53 53 52 51 51 52 52 53 53 53
45 44 45 44 44 44 45 47 48 48 49 49 49 49 49 49 48 49 50 50 52 52 47 43 40 40 40 44 40 43 46 47 48 51 51 50 50 50 50 51 52 51 51
44 45 45 46 46 45 45 45 46 46 47 49 49 49 49 48 49 49 50 52 50 45 44 40 38 37 37 39 39 37 34 36 35 40 44 46 47 49 50 50 50 50 50
44 44 44 45 46 46 46 45 46 47 47 47 47 48 49 49 51 51 50 50 46 43 41 39 36 35 33 34 34 36 33 33 32 35 34 36 38 39 42 49 49 49 49
42 42 43 44 44 46 48 49 47 45 45 45 45 46 48 50 52 54 55 52 48 42 40 37 35 34 32 32 32 33 33 32 30 34 33 32 36 36 38 47 49 49 48
44 42 43 43 43 44 47 49 49 47 45 44 44 46 47 50 52 54 54 53 51 49 46 41 34 32 32 32 32 32 31 31 30 32 37 33 39 37 40 44 47 47 47
45 43 43 43 43 45 48 49 50 48 46 46 47 47 48 49 51 47 42 39 39 40 40 38 35 33 33 32 32 32 31 31 33 35 38 32 38 37 41 42 44 45 45
44 44 44 46 47 46 48 50 48 46 45 46 47 48 48 47 48 46 40 38 38 39 44 44 42 42 41 39 37 36 33 33 31 33 39 36 36 38 40 40 42 41 43
43 44 43 44 46 46 50 49 47 45 43 43 44 46 48 46 47 46 41 38 35 36 36 36 36 39 40 40 40 38 36 34 36 36 40 38 39 40 38 42 42 43 44
MSLP
1018.45 1018.14 1017.78 1017.48 1017.19 1016.93 1016.68 1016.45 1016.19 1015.80 1015.38 1014.91 1014.53 1014.11 1013.47 1012.91 1012.42 1011.84 1011.87 1011.83 1011.87 1012.10 1011.74 1011.89 1012.35 1012.70 1012.90 1013.05 1013.39 1013.72 1014.01 1014.31 1014.47 1014.72 1014.91 1015.12 1015.29 1015.59 1015.73 1015.84 1015.91 1015.84 1015.78
1018.20 1017.92 1017.52 1017.26 1017.01 1016.73 1016.52 1016.41 1016.18 1015.74 1015.42 1014.94 1014.38 1014.04 1013.63 1013.09 1012.47 1011.74 1011.38 1011.41 1011.48 1011.21 1011.30 1011.34 1011.39 1011.85 1012.35 1012.39 1012.70 1013.01 1013.40 1013.77 1014.03 1014.29 1014.51 1014.71 1014.91 1015.18 1015.46 1015.55 1015.66 1015.65 1015.60
1017.62 1017.55 1017.37 1016.91 1016.69 1016.62 1016.29 1016.15 1016.04 1015.69 1015.17 1014.74 1014.26 1013.87 1013.56 1013.00 1012.47 1011.78 1011.19 1010.76 1010.48 1010.46 1010.66 1010.70 1010.80 1010.91 1011.40 1011.69 1011.92 1012.32 1012.70 1013.18 1013.52 1013.77 1014.04 1014.28 1014.50 1014.76 1015.10 1015.28 1015.28 1015.31 1015.39
1017.22 1017.26 1016.94 1016.57 1016.39 1016.34 1016.21 1015.85 1015.92 1015.54 1015.11 1014.62 1014.09 1013.63 1013.24 1012.80 1012.25 1011.67 1011.00 1010.43 1010.28 1009.96 1009.87 1010.20 1009.98 1010.07 1010.33 1010.87 1011.12 1011.47 1011.94 1012.45 1012.91 1013.25 1013.56 1013.77 1014.08 1014.38 1014.66 1014.87 1015.01 1014.96 1015.08
1016.35 1016.51 1016.34 1015.93 1015.73 1015.66 1015.52 1015.56 1015.21 1015.06 1014.50 1014.20 1013.87 1013.43 1013.02 1012.40 1011.86 1011.42 1010.78 1010.14 1009.63 1009.49 1009.42 1009.13 1009.19 1009.29 1009.48 1009.71 1010.26 1010.56 1011.01 1011.59 1012.17 1012.64 1013.00 1013.29 1013.62 1013.94 1014.27 1014.38 1014.52 1014.61 1014.80
1015.73 1015.67 1015.47 1015.30 1015.26 1015.24 1015.02 1014.91 1014.60 1014.43 1014.26 1013.85 1013.50 1013.15 1012.61 1011.92 1011.26 1010.64 1010.07 1009.52 1009.00 1008.67 1008.73 1008.67 1008.41 1008.43 1008.62 1008.72 1009.13 1009.68 1010.11 1010.61 1011.18 1011.86 1012.28 1012.65 1013.02 1013.37 1013.65 1013.95 1014.01 1014.28 1014.51
1015.19 1015.20 1015.13 1015.08 1014.87 1014.66 1014.30 1014.39 1014.28 1014.02 1013.56 1013.53 1013.10 1012.35 1011.84 1011.38 1010.37 1009.56 1008.95 1008.56 1008.24 1007.96 1007.80 1007.80 1007.70 1007.56 1007.34 1007.77 1007.98 1008.58 1008.91 1009.12 1009.68 1010.45 1011.43 1012.07 1012.29 1012.62 1012.85 1013.30 1013.54 1013.82 1014.25
1014.61 1014.69 1014.49 1014.31 1014.20 1014.08 1013.82 1013.76 1013.70 1013.50 1013.37 1013.26 1012.68 1012.40 1011.13 1010.30 1009.50 1008.60 1008.07 1007.52 1007.21 1007.34 1007.22 1007.00 1006.97 1006.69 1006.68 1006.66 1006.98 1007.13 1007.60 1008.19 1008.87 1009.39 1009.98 1010.96 1011.56 1011.71 1012.14 1012.69 1013.06 1013.32 1013.92
1013.80 1013.51 1013.33 1013.02 1012.68 1012.78 1012.72 1012.60 1012.64 1012.64 1012.36 1012.36 1012.41 1012.28 1011.51 1010.26 1009.80 1008.67 1007.75 1007.34 1006.89 1006.53 1006.47 1006.43 1006.22 1005.98 1005.94 1006.03 1006.38 1006.48 1006.90 1007.68 1006.60 1008.46 1009.27 1009.99 1010.73 1011.00 1011.44 1012.12 1012.70 1012.90 1013.62
1013.13 1012.74 1012.46 1012.33 1012.18 1012.08 1011.97 1011.84 1011.81 1011.95 1011.97 1011.52 1011.73 1011.69 1011.61 1011.33 1010.53 1008.85 1007.64 1007.58 1007.36 1006.83 1006.17 1005.69 1005.52 1005.39 1005.30 1005.45 1005.51 1005.72 1005.93 1006.42 1006.89 1007.80 1007.64 1008.98 1009.52 1010.66 1010.95 1011.68 1012.41 1012.90 1013.38
1012.27 1011.96 1011.69 1011.47 1011.34 1011.28 1011.22 1011.36 1011.30 1011.34 1011.28 1011.10 1010.87 1010.91 1011.12 1010.91 1010.90 1010.22 1008.74 1007.34 1006.94 1006.64 1006.23 1005.97 1004.90 1004.66 1004.68 1004.98 1005.20 1005.20 1005.74 1006.10 1006.51 1007.49 1007.54 1007.57 1008.86 1009.82 1010.66 1011.32 1012.31 1012.90 1013.32
1011.35 1011.15 1010.89 1010.57 1010.36 1010.31 1010.36 1010.39 1010.31 1010.38 1010.39 1010.27 1010.15 1010.28 1010.40 1010.40 1010.10 1009.64 1008.96 1007.68 1007.11 1006.47 1006.46 1006.07 1005.43 1004.27 1004.24 1004.42 1004.81 1004.82 1005.37 1005.76 1006.28 1007.20 1007.96 1008.24 1009.20 1009.69 1010.35 1011.27 1012.20 1012.68 1013.20
1010.25 1009.99 1010.01 1009.73 1009.56 1009.51 1009.35 1009.38 1009.40 1009.44 1009.40 1009.35 1009.21 1009.47 1009.75 1009.76 1009.91 1009.53 1009.10 1007.89 1007.64 1006.82 1006.19 1005.96 1005.52 1005.02 1004.13 1003.94 1004.30 1004.61 1004.78 1005.33 1005.83 1006.54 1007.46 1008.21 1008.54 1009.49 1010.67 1011.59 1012.11 1012.50 1013.07
1009.05 1008.85 1008.79 1008.74 1008.58 1008.58 1008.54 1008.51 1008.52 1008.52 1008.51 1008.55 1008.48 1008.81 1008.99 1008.98 1009.08 1008.94 1008.43 1008.18 1007.39 1006.46 1006.08 1005.99 1005.67 1005.13 1004.24 1003.70 1003.79 1004.20 1004.52 1004.84 1005.40 1006.25 1006.86 1007.73 1008.93 1010.00 1011.07 1011.79 1012.39 1012.61 1013.20
1007.91 1007.72 1007.62 1007.62 1007.56 1007.54 1007.56 1007.59 1007.57 1007.52 1007.61 1007.69 1007.76 1007.99 1008.22 1008.15 1008.17 1008.04 1007.76 1007.65 1007.48 1006.86 1006.09 1006.23 1006.27 1005.11 1004.09 1003.51 1003.83 1004.15 1004.32 1004.79 1005.49 1006.21 1007.25 1008.42 1009.63 1010.52 1011.46 1011.65 1012.40 1012.84 1013.33
1006.60 1006.50 1006.47 1006.42 1006.47 1006.57 1006.61 1006.70 1006.74 1006.76 1006.87 1006.84 1006.90 1007.06 1007.22 1007.28 1007.27 1007.23 1006.94 1006.83 1006.84 1006.91 1006.13 1005.86 1006.40 1005.56 1004.52 1003.77 1003.66 1004.38 1005.00 1005.42 1006.41 1007.59 1008.44 1009.23 1010.17 1010.93 1011.65 1012.20 1012.41 1012.96 1013.45
1005.44 1005.45 1005.31 1005.17 1005.35 1005.53 1005.60 1005.72 1005.79 1005.89 1005.94 1006.01 1006.11 1006.17 1006.28 1006.51 1006.40 1006.38 1006.30 1006.32 1006.18 1006.43 1006.74 1006.59 1007.00 1006.39 1005.26 1004.10 1005.41 1005.50 1006.47 1007.05 1008.29 1009.42 1010.51 1010.58 1011.25 1011.50 1012.26 1012.53 1012.94 1013.65 1013.57
1004.43 1004.34 1004.19 1004.17 1004.44 1004.59 1004.58 1004.70 1004.79 1004.86 1005.03 1005.16 1005.32 1005.45 1005.61 1005.82 1005.79 1005.84 1005.86 1005.85 1005.71 1005.89 1006.45 1006.73 1006.97 1007.62 1006.77 1006.08 1005.61 1006.42 1007.79 1008.76 1009.85 1010.84 1011.22 1012.13 1012.55 1012.55 1012.57 1013.04 1013.49 1013.88 1014.15
1002.99 1002.94 1002.82 1002.80 1003.06 1003.33 1003.59 1003.79 1003.85 1003.95 1004.09 1004.22 1004.44 1004.55 1004.82 1005.03 1004.97 1005.06 1005.09 1005.16 1005.33 1005.37 1005.95 1006.81 1007.54 1008.13 1008.07 1008.08 1006.75 1008.10 1009.03 1009.46 1010.71 1011.78 1012.34 1012.91 1013.19 1013.71 1012.87 1013.81 1013.75 1014.32 1014.80
1001.60 1001.47 1001.52 1001.57 1001.82 1002.16 1002.57 1002.82 1003.03 1003.16 1003.26 1003.39 1003.53 1003.75 1004.01 1004.17 1004.19 1004.13 1004.14 1004.17 1004.46 1005.05 1005.61 1007.20 1007.36 1008.75 1008.98 1008.92 1008.76 1009.57 1009.79 1011.11 1012.43 1013.29 1013.63 1013.75 1013.56 1013.89 1013.82 1014.17 1014.72 1014.63 1015.28
1000.30 1000.38 1000.54 1000.69 1000.80 1001.01 1001.39 1001.76 1002.05 1002.33 1002.53 1002.78 1002.91 1003.18 1003.31 1003.48 1003.52 1003.47 1003.41 1003.62 1004.23 1005.00 1005.94 1006.69 1007.93 1009.30 1009.40 1010.18 1010.83 1011.22 1011.22 1012.32 1013.69 1014.42 1014.70 1015.24 1014.99 1014.67 1015.10 1014.94 1015.34 1015.52 1015.57
998.76 999.24 999.52 999.77 1000.07 1000.21 1000.35 1000.61 1001.11 1001.60 1001.95 1002.19 1002.31 1002.56 1002.76 1002.70 1002.64 1002.55 1002.62 1003.33 1003.74 1004.82 1005.73 1006.71 1008.41 1009.57 1010.56 1011.00 1011.44 1012.03 1012.48 1013.05 1014.21 1015.22 1015.29 1016.26 1016.06 1015.76 1016.15 1015.54 1015.76 1015.85 1015.59
997.18 998.33 998.78 999.17 999.33 999.48 999.81 1000.01 1000.34 1000.69 1001.19 1001.56 1001.78 1001.99 1002.13 1002.15 1002.21 1002.21 1002.11 1002.92 1003.92 1004.92 1005.73 1006.63 1008.05 1009.25 1010.63 1011.58 1011.90 1013.29 1013.61 1014.14 1014.45 1015.56 1015.72 1016.49 1016.40 1016.71 1016.91 1016.29 1016.26 1015.99 1016.08
998.32 998.59 998.65 998.61 998.61 998.71 999.11 999.37 999.60 999.99 1000.48 1000.86 1001.18 1001.27 1001.43 1001.55 1001.77 1002.24 1002.86 1004.34 1006.06 1006.82 1007.50 1008.23 1009.60 1010.56 1011.44 1012.55 1012.96 1013.66 1014.39 1014.84 1015.74 1016.16 1016.25 1016.60 1017.04 1017.27 1017.45 1017.49 1017.06 1016.76 1016.85
1000.29 999.89 999.39 998.56 997.69 997.73 998.50 999.10 999.49 999.76 1000.25 1000.30 1000.36 1000.54 1000.84 1001.34 1002.14 1002.97 1003.71 1005.72 1007.40 1008.46 1009.17 1010.06 1011.13 1012.00 1012.64 1013.51 1014.07 1014.35 1015.17 1015.51 1016.10 1016.70 1016.80 1016.86 1017.62 1017.71 1017.88 1018.00 1017.94 1017.97 1017.63
1002.30 1001.92 1001.44 1000.88 1000.24 999.55 999.68 1000.09 1000.46 1000.93 1001.10 1001.25 1001.04 1001.43 1001.86 1002.65 1003.39 1003.58 1005.44 1006.64 1008.10 1009.66 1010.04 1011.26 1011.98 1012.91 1013.64 1014.54 1015.24 1015.60 1015.64 1015.64 1015.84 1016.46 1017.38 1017.09 1017.69 1017.86 1017.76 1018.24 1018.24 1018.28 1018.12
Wind_Speed
5 4 4 4 4 4 6 8 8 9 9 10 10 11 12 13 13 6 6 17 24 25 25 25 25 24 24 23 22 21 20 19 18 16 16 14 11 10 8 7 5 4 3
4 5 5 4 5 4 4 5 7 7 8 9 10 11 12 12 14 14 8 10 20 22 23 27 26 27 26 25 24 23 21 21 20 18 18 15 14 12 10 9 8 7 3
6 6 5 5 4 4 5 5 6 6 7 9 11 10 11 12 12 14 10 7 11 19 22 29 28 27 28 28 26 24 22 22 21 21 19 17 15 13 12 10 9 8 5
8 8 6 7 5 5 4 4 5 6 6 7 10 11 10 11 14 15 13 11 8 9 15 28 28 28 28 29 29 26 24 24 23 22 21 19 17 15 14 12 10 9 8
9 8 8 8 8 6 5 5 6 5 6 7 9 10 11 12 13 13 17 16 15 11 10 16 23 27 29 29 30 29 27 26 25 23 22 20 18 16 15 13 12 11 8
11 10 8 10 8 8 8 7 8 7 7 7 8 11 10 11 11 12 14 14 14 15 12 14 12 14 28 29 29 31 28 28 27 25 23 22 20 18 16 15 13 11 8
10 9 8 9 8 8 9 9 8 10 9 6 7 9 9 14 16 14 13 13 15 14 14 13 11 9 12 29 29 30 32 33 31 28 25 24 22 20 18 16 12 11 9
11 9 10 9 9 8 10 10 9 7 8 6 6 8 9 9 10 10 12 12 16 10 13 13 14 16 13 11 19 29 30 33 31 27 28 26 24 21 19 15 12 12 12
13 10 11 10 9 8 9 11 10 11 10 9 9 5 6 6 11 8 12 10 13 10 11 12 13 15 17 13 14 19 28 25 26 31 28 28 26 22 18 14 13 14 11
14 13 12 12 11 9 12 11 10 10 9 10 7 7 10 9 6 9 8 9 10 8 11 10 10 11 14 11 14 14 20 25 24 31 38 30 24 21 17 14 16 15 11
13 15 13 14 13 9 12 13 12 11 9 10 9 7 8 7 11 10 12 11 7 8 5 8 10 9 13 9 7 11 16 20 18 18 19 32 24 21 17 21 18 13 11
10 13 14 13 13 12 12 12 13 13 11 11 10 9 9 8 8 8 9 12 8 7 3 5 8 7 8 8 9 11 16 20 21 19 18 17 16 15 23 22 17 15 12
10 12 14 13 11 13 13 12 12 12 12 11 12 9 10 10 10 10 10 12 11 9 7 4 5 7 4 9 7 13 16 19 19 20 20 18 20 26 23 19 17 15 12
13 15 14 15 16 16 14 13 10 11 12 11 14 11 10 10 10 10 11 10 11 10 3 4 4 5 6 6 7 14 9 19 21 19 19 27 27 26 23 20 17 16 13
13 16 17 16 16 16 15 13 11 13 13 13 13 12 11 10 10 10 11 10 8 8 7 3 4 5 5 5 7 7 7 17 21 30 30 29 27 25 22 21 19 17 14
16 16 16 16 16 16 16 15 12 14 13 12 11 13 12 10 10 10 10 9 9 9 8 2 2 5 4 7 12 12 15 25 30 28 27 28 27 26 23 21 20 17 14
15 16 16 16 15 15 16 15 15 14 14 14 13 12 14 12 10 10 9 7 6 7 6 1 3 5 5 16 12 15 15 16 16 27 25 26 24 25 23 21 20 16 15
15 14 15 12 15 14 14 15 15 14 13 14 13 13 13 10 14 13 10 11 9 9 3 6 5 4 6 6 17 20 14 13 14 24 27 25 23 23 24 22 19 18 15
15 15 14 14 13 14 13 15 15 15 14 14 14 14 13 13 14 11 12 11 10 9 7 7 6 3 5 4 15 13 15 15 13 25 26 25 24 21 24 19 20 16 12
14 14 13 13 13 13 12 13 12 12 13 13 14 14 13 12 13 14 13 14 7 8 11 8 10 5 4 6 8 12 15 11 11 10 18 18 19 20 22 20 17 18 15
13 13 12 12 11 11 10 12 12 14 12 14 13 12 11 12 19 17 7 4 13 10 9 11 8 6 6 5 7 8 14 12 10 6 9 8 7 7 8 14 14 15 11
13 11 11 11 11 8 15 19 14 10 11 11 10 10 12 17 18 19 16 22 19 16 14 11 9 8 8 9 7 8 10 8 7 4 6 6 5 8 6 7 15 14 13
7 8 8 8 9 10 17 17 17 8 10 9 10 9 9 9 14 11 13 24 21 19 14 12 15 12 13 9 11 9 10 8 8 5 7 8 7 8 7 8 17 17 16
14 4 3 7 8 8 16 14 13 7 8 10 10 9 8 7 5 11 20 21 17 16 14 13 13 13 13 10 10 10 10 10 9 7 4 7 7 7 7 8 17 16 14
18 19 18 18 12 6 13 11 6 9 8 3 7 11 9 12 31 34 25 23 20 18 27 32 29 26 25 22 15 10 9 9 9 5 4 6 3 7 7 7 7 13 16
18 16 19 21 31 21 32 30 21 12 17 15 18 19 31 24 33 37 22 22 21 16 18 18 17 20 19 17 18 10 8 9 11 8 4 5 4 0 4 5 7 7 6
Wind_Direction
341 340 352 354 359 354 356 345 341 338 330 326 321 314 310 304 292 271 236 231 231 230 227 231 234 228 225 222 222 220 217 215 213 211 206 202 199 201 202 202 210 212 245
297 314 325 334 335 344 341 335 336 333 326 321 314 311 305 302 299 288 261 231 232 238 238 238 231 228 229 223 221 220 219 216 216 212 208 208 205 206 208 208 217 238 224
296 295 295 301 308 316 316 320 322 322 323 322 316 310 301 297 295 289 281 256 248 247 241 242 234 229 229 227 221 221 217 217 216 213 213 210 211 210 213 216 222 235 228
285 282 281 279 284 277 271 283 290 306 312 317 317 313 304 294 288 285 280 273 247 247 235 238 233 229 226 229 224 218 216 216 217 214 214 211 212 214 218 220 227 235 236
279 274 274 281 282 278 277 275 282 284 301 310 307 308 300 291 284 278 276 269 264 244 245 240 237 231 225 223 228 221 215 214 214 216 214 212 212 212 220 224 226 232 232
285 290 288 289 287 276 278 280 285 284 280 288 299 301 291 288 282 271 264 263 257 252 239 243 236 233 225 222 223 226 217 214 209 213 215 212 209 213 220 225 227 232 225
275 272 271 274 273 270 272 274 283 284 281 271 295 298 290 282 268 261 256 250 253 253 243 235 238 237 220 219 218 223 221 214 205 204 213 214 211 213 218 226 226 211 184
254 246 246 248 252 260 264 264 260 266 262 257 279 294 299 308 265 278 256 245 241 241 245 232 231 231 224 216 219 220 221 231 209 205 205 210 212 211 217 220 204 190 180
281 265 267 266 273 272 272 272 270 260 270 261 241 256 290 293 328 290 321 278 258 238 238 235 228 230 228 221 221 223 224 228 201 209 207 207 210 210 209 210 191 180 147
277 274 263 263 262 268 267 265 263 253 253 259 241 238 247 271 287 305 297 303 296 290 275 233 229 227 226 225 217 219 217 208 221 218 208 202 200 208 199 184 167 143 139
276 275 269 267 262 257 257 254 255 241 237 245 246 245 243 257 263 263 276 283 298 291 253 290 234 220 221 214 207 202 209 209 207 212 212 208 188 193 177 154 144 138 124
274 268 267 265 266 261 255 248 251 244 239 237 243 239 242 249 259 265 265 270 290 298 299 289 282 235 204 209 206 192 198 198 199 193 195 177 178 167 149 139 138 132 119
270 262 259 260 261 258 255 251 251 246 243 236 238 233 236 243 250 259 262 269 278 280 301 228 261 274 273 207 201 194 199 197 188 177 165 162 156 141 136 135 133 121 109
268 266 258 252 259 259 253 248 250 248 246 240 239 234 235 240 241 249 256 267 276 281 217 288 310 261 251 224 202 188 200 197 172 157 152 132 133 132 129 129 118 107 97
263 264 260 256 256 254 252 248 247 248 245 241 240 234 232 239 241 249 253 246 250 271 267 174 262 296 261 200 179 184 183 186 165 139 133 132 132 127 127 116 107 100 97
267 265 259 257 257 253 252 252 247 243 242 240 239 235 231 237 245 249 247 239 238 249 283 60 348 302 276 105 126 108 108 106 114 115 122 125 124 119 115 111 105 101 99
274 269 262 257 257 247 252 251 246 245 238 241 237 238 238 240 254 256 256 258 245 259 259 171 86 335 358 112 98 94 92 97 102 108 113 111 111 110 106 100 95 90 80
264 259 258 252 247 249 246 243 246 240 233 241 239 239 241 244 255 251 252 249 245 247 176 171 73 317 54 71 103 103 94 92 105 110 103 95 97 96 95 92 90 86 80
260 254 248 244 237 235 236 244 238 240 244 243 239 241 245 250 247 244 246 238 234 231 161 163 115 19 50 130 88 78 105 98 91 98 99 102 97 99 97 89 81 72 79
261 255 250 246 239 231 226 227 230 235 235 243 247 247 246 234 240 244 237 233 207 146 141 134 111 100 86 60 82 116 89 78 78 68 75 77 78 73 75 79 73 69 58
264 255 252 250 246 230 222 223 222 224 233 241 245 241 233 244 244 241 233 193 139 138 132 130 128 124 106 115 93 107 96 96 73 74 75 50 56 44 37 69 66 62 58
247 241 243 239 237 244 232 233 218 219 221 227 233 229 236 240 239 234 238 164 151 144 148 130 134 128 93 107 101 95 95 100 106 31 80 58 38 50 18 67 67 61 57
202 214 224 231 233 229 238 237 236 216 201 213 222 228 223 224 237 239 246 167 157 138 136 135 119 106 99 95 95 82 78 79 82 82 95 76 63 58 27 37 55 48 45
46 77 219 229 229 228 234 235 231 218 190 202 217 222 221 224 205 105 92 81 74 76 87 94 94 97 95 84 84 94 101 95 90 71 60 87 70 67 59 45 43 45 42
39 41 39 40 56 190 213 207 115 87 81 108 213 222 231 123 116 110 99 100 101 103 103 103 103 102 103 105 108 113 105 112 105 93 69 95 91 95 76 62 51 44 39
49 49 51 46 49 58 81 85 82 80 76 70 64 75 96 105 107 105 106 109 105 99 94 87 81 82 84 95 95 95 116 117 123 110 84 98 129 196 93 52 43 35 33